Regional Weather Roundup
Issued by NWS

Home | Current Version | Previous Version | Text Only | Print | Product List | Glossary On
Versions: 1 2 3 4 5 6 7 8 9 10 11 12 13 14 15 16 17 18 19 20 21 22 23 24 25 26 27 28 29 30 31 32 33 34 35 36 37 38 39 40 41 42 43 44 45 46 47 48 49 50
000
ASUS44 KBMX 221010
RWRAL

ALABAMA REGIONAL WEATHER ROUNDUP
NATIONAL WEATHER SERVICE BIRMINGHAM AL
500 AM CDT WED OCT 22 2014

NOTE: "FAIR" INDICATES FEW OR NO CLOUDS BELOW 12,000 FEET
WITH NO SIGNIFICANT WEATHER AND/OR OBSTRUCTIONS TO VISIBILITY.

THE REMARK "TC" DENOTES TEMPERATURE IN DEGREES CELSIUS.

ALZ001>011-014-016>018-020-221100-
NORTH ALABAMA

CITY           SKY/WX    TMP DP  RH WIND       PRES   REMARKS
MUSCLE SHOALS  CLEAR     51  43  74 NE6       30.16R
HUNTSVILLE     CLEAR     50  42  74 NE7       30.14R
DECATUR        CLEAR     43  41  93 N3        30.15R
HALEYVILLE     FAIR      42  42 100 CALM      30.16R
GADSDEN        CLEAR     46  43  87 NW6       30.11R
$$

ALZ012-013-022-023-030>036-040>044-221100-
WEST CENTRAL ALABAMA

CITY           SKY/WX    TMP DP  RH WIND       PRES   REMARKS
TUSCALOOSA     CLEAR     52  48  86 N7        30.10R
$$

ALZ015-024>027-033>036-040>044-221100-
CENTRAL ALABAMA

CITY           SKY/WX    TMP DP  RH WIND       PRES   REMARKS
BIRMINGHAM     CLEAR     50  46  86 CALM      30.12R
MONTGOMERY     CLEAR     52  50  93 N7        30.06R
SHELBY CO ARPT CLEAR     55  47  74 VRB3      30.09R
MAXWELL AFB    CLEAR     53  53 100 N6        30.06R
GREENVILLE     FAIR      54  50  86 CALM      30.04R
$$

ALZ019-021-028-029-037-038-045>048-221100-
EAST CENTRAL ALABAMA

CITY           SKY/WX    TMP DP  RH WIND       PRES   REMARKS
ANNISTON       CLEAR     43  41  93 CALM      30.10R
ALEXANDER CITY CLEAR     54  48  80 N5        30.07R
AUBURN         CLEAR     50  43  76 N9        30.08R
$$

ALZ051>064-221100-
SOUTHWEST ALABAMA

CITY           SKY/WX    TMP DP  RH WIND       PRES   REMARKS
MOBILE         CLEAR     57  53  86 N7        30.04R
BROOKLEY FIELD CLEAR     54  53  97 N7        30.04S
EVERGREEN      CLEAR     49  48  97 CALM      30.05R FOG
$$

ALZ049-050-065>069-221100-
SOUTHEAST ALABAMA

CITY           SKY/WX    TMP DP  RH WIND       PRES   REMARKS
DOTHAN         CLEAR     52  49  89 N3        30.06R
OZARK          CLEAR     51  49  93 CALM      30.03R
TROY           CLEAR     46  44  93 CALM      30.05R
EUFAULA        FAIR      50  48  93 CALM      30.03R
$$



USA.gov is the U.S. government's official web portal to all federal, state and local government web resources and services.